Time,TemperatureF,DewpointF,PressureIn,WindDirection,WindDirectionDegrees,WindSpeedMPH,WindSpeedGustMPH,Humidity,HourlyPrecipIn,Conditions,Clouds,dailyrainin,SoftwareType,DateUTC
2013-04-20 00:00:00,46.3,45.4,29.68,North,349,0.0,0.0,97,0.00,,,0.00,VWS V14.00,2013-04-20 04:00:00,
2013-04-20 00:02:00,47.5,46.0,29.68,North,349,0.0,0.0,94,0.00,,,0.00,VWS V14.00,2013-04-20 04:02:00,
2013-04-20 00:03:00,46.2,45.3,29.68,North,349,0.0,0.0,97,0.00,,,0.00,VWS V14.00,2013-04-20 04:03:00,
2013-04-20 00:05:00,47.3,45.8,29.68,North,349,0.0,0.0,94,0.00,,,0.00,VWS V14.00,2013-04-20 04:05:00,
2013-04-20 00:06:00,47.4,45.9,29.69,North,349,0.0,0.0,95,0.00,,,0.00,VWS V14.00,2013-04-20 04:06:00,
2013-04-20 00:09:00,46.1,45.2,29.67,North,349,0.0,0.0,97,0.00,,,0.00,VWS V14.00,2013-04-20 04:09:00,
2013-04-20 00:10:00,54.7,43.1,29.98,SE,135,4.3,8.0,65,0.00,,,0.00,VWS V14.00,2013-04-20 04:10:00,
2013-04-20 00:11:00,47.2,45.8,29.69,North,349,0.0,0.0,95,0.00,,,0.00,VWS V14.00,2013-04-20 04:11:00,
2013-04-20 00:12:00,45.9,45.0,29.67,North,349,0.0,0.0,97,0.00,,,0.00,VWS V14.00,2013-04-20 04:12:00,
2013-04-20 00:14:00,47.0,45.6,29.70,North,349,0.0,0.0,95,0.00,,,0.00,VWS V14.00,2013-04-20 04:14:00,
2013-04-20 00:15:00,45.8,44.9,29.68,North,349,0.0,0.0,97,0.00,,,0.00,VWS V14.00,2013-04-20 04:15:00,
2013-04-20 00:18:00,45.7,44.8,29.69,NW,322,0.0,5.0,97,0.00,,,0.00,VWS V14.00,2013-04-20 04:18:00,
2013-04-20 00:20:00,46.7,45.4,29.70,North,349,0.0,0.0,95,0.00,,,0.00,VWS V14.00,2013-04-20 04:20:00,
2013-04-20 00:21:00,45.4,44.5,29.69,North,3,0.0,6.8,97,0.00,,,0.00,VWS V14.00,2013-04-20 04:21:00,
2013-04-20 00:24:00,45.4,44.5,29.69,North,3,0.0,6.8,97,0.00,,,0.00,VWS V14.00,2013-04-20 04:24:00,
2013-04-20 00:26:00,46.4,45.3,29.68,North,349,0.0,0.0,96,0.00,,,0.00,VWS V14.00,2013-04-20 04:26:00,
2013-04-20 00:27:00,45.2,44.3,29.69,NW,321,0.0,6.8,97,0.00,,,0.00,VWS V14.00,2013-04-20 04:27:00,
2013-04-20 00:30:00,44.9,44.0,29.69,NW,321,0.0,6.8,97,0.00,,,0.00,VWS V14.00,2013-04-20 04:30:00,
2013-04-20 00:32:00,46.4,45.5,29.69,North,349,0.0,0.0,96,0.00,,,0.00,VWS V14.00,2013-04-20 04:32:00,
2013-04-20 00:33:00,44.7,43.8,29.69,NW,321,0.0,6.8,97,0.00,,,0.00,VWS V14.00,2013-04-20 04:33:00,
2013-04-20 00:36:00,44.6,43.7,29.69,NW,321,0.0,6.8,96,0.00,,,0.00,VWS V14.00,2013-04-20 04:36:00,
2013-04-20 00:38:00,46.3,45.4,29.69,North,349,0.0,0.0,97,0.00,,,0.00,VWS V14.00,2013-04-20 04:38:00,
2013-04-20 00:39:00,44.5,43.5,29.69,NW,321,0.0,6.8,96,0.00,,,0.00,VWS V14.00,2013-04-20 04:39:00,
2013-04-20 00:40:00,55.0,44.8,29.97,NE,37,0.0,7.8,68,0.00,,,0.00,VWS V14.00,2013-04-20 04:40:00,
2013-04-20 00:42:00,44.2,43.2,29.69,NW,321,0.0,6.8,96,0.00,,,0.00,VWS V14.00,2013-04-20 04:42:00,
2013-04-20 00:44:00,46.2,45.3,29.68,North,349,0.0,0.0,97,0.00,,,0.00,VWS V14.00,2013-04-20 04:44:00,
2013-04-20 00:45:00,43.9,43.0,29.69,NW,325,0.0,7.3,96,0.00,,,0.00,VWS V14.00,2013-04-20 04:45:00,
2013-04-20 00:48:00,43.7,42.8,29.69,NW,325,0.0,7.3,96,0.00,,,0.00,VWS V14.00,2013-04-20 04:48:00,
2013-04-20 00:50:00,46.2,45.3,29.68,North,349,0.0,0.0,97,0.00,,,0.00,VWS V14.00,2013-04-20 04:50:00,
2013-04-20 00:51:00,43.6,42.7,29.69,NW,325,0.0,7.3,96,0.00,,,0.00,VWS V14.00,2013-04-20 04:51:00,
2013-04-20 00:54:00,43.3,42.3,29.70,NW,325,0.0,7.3,96,0.00,,,0.00,VWS V14.00,2013-04-20 04:54:00,
2013-04-20 00:57:00,43.1,42.2,29.69,NW,325,0.0,7.3,96,0.00,,,0.00,VWS V14.00,2013-04-20 04:57:00,
2013-04-20 01:00:00,42.9,42.0,29.69,NW,325,0.0,7.3,96,0.00,,,0.00,VWS V14.00,2013-04-20 05:00:00,
2013-04-20 01:03:00,42.8,41.9,29.69,NW,325,0.0,7.3,96,0.00,,,0.00,VWS V14.00,2013-04-20 05:03:00,
2013-04-20 01:06:00,42.7,41.8,29.68,NW,325,0.0,7.3,96,0.00,,,0.00,VWS V14.00,2013-04-20 05:06:00,
2013-04-20 01:09:00,42.5,41.6,29.68,NW,325,0.0,7.3,97,0.00,,,0.00,VWS V14.00,2013-04-20 05:09:00,
2013-04-20 01:12:00,42.5,41.6,29.68,NW,325,0.0,7.3,97,0.00,,,0.00,VWS V14.00,2013-04-20 05:12:00,
2013-04-20 01:15:00,42.4,41.5,29.69,NW,325,0.0,7.3,97,0.00,,,0.00,VWS V14.00,2013-04-20 05:15:00,
2013-04-20 01:18:00,42.3,41.4,29.69,NW,325,0.0,7.3,96,0.00,,,0.00,VWS V14.00,2013-04-20 05:18:00,
2013-04-20 01:21:00,42.3,41.4,29.69,NNW,330,5.1,7.3,96,0.00,,,0.00,VWS V14.00,2013-04-20 05:21:00,
2013-04-20 01:24:00,42.0,41.1,29.69,NNW,330,0.0,7.3,97,0.00,,,0.00,VWS V14.00,2013-04-20 05:24:00,
2013-04-20 01:27:00,42.0,41.1,29.68,NNW,330,0.0,7.3,97,0.00,,,0.00,VWS V14.00,2013-04-20 05:27:00,
2013-04-20 01:30:00,41.9,41.0,29.67,NNW,330,0.0,7.3,97,0.00,,,0.00,VWS V14.00,2013-04-20 05:30:00,
2013-04-20 01:33:00,41.8,40.9,29.67,NNW,330,0.0,7.3,97,0.00,,,0.00,VWS V14.00,2013-04-20 05:33:00,
2013-04-20 01:36:00,41.7,40.8,29.69,NNW,330,0.0,7.3,97,0.00,,,0.00,VWS V14.00,2013-04-20 05:36:00,
2013-04-20 01:39:00,41.6,40.7,29.69,NNW,330,0.0,7.3,97,0.00,,,0.00,VWS V14.00,2013-04-20 05:39:00,
2013-04-20 01:42:00,41.4,40.4,29.70,NNW,330,0.0,7.3,96,0.00,,,0.00,VWS V14.00,2013-04-20 05:42:00,
2013-04-20 01:45:00,41.2,40.2,29.70,NNW,330,0.0,7.3,96,0.00,,,0.00,VWS V14.00,2013-04-20 05:45:00,
2013-04-20 01:48:00,41.1,40.1,29.70,North,349,6.1,7.3,96,0.00,,,0.00,VWS V14.00,2013-04-20 05:48:00,
2013-04-20 01:51:00,41.1,40.2,29.69,NNW,345,0.0,7.3,96,0.00,,,0.00,VWS V14.00,2013-04-20 05:51:00,
2013-04-20 01:54:00,40.8,39.9,29.69,NNW,345,0.0,7.3,97,0.00,,,0.00,VWS V14.00,2013-04-20 05:54:00,
2013-04-20 01:57:00,41.0,40.1,29.68,NNW,345,0.0,7.3,97,0.00,,,0.00,VWS V14.00,2013-04-20 05:57:00,
2013-04-20 02:00:00,40.8,39.9,29.67,NNW,345,0.0,7.3,97,0.00,,,0.00,VWS V14.00,2013-04-20 06:00:00,
2013-04-20 02:03:00,40.9,40.0,29.67,NNW,345,0.0,7.3,96,0.00,,,0.00,VWS V14.00,2013-04-20 06:03:00,
2013-04-20 02:06:00,40.7,39.7,29.68,NNW,345,0.0,7.3,96,0.00,,,0.00,VWS V14.00,2013-04-20 06:06:00,
2013-04-20 02:09:00,40.5,39.5,29.68,NNW,345,0.0,7.3,96,0.00,,,0.00,VWS V14.00,2013-04-20 06:09:00,
2013-04-20 02:12:00,40.4,39.4,29.69,NNW,345,0.0,7.3,96,0.00,,,0.00,VWS V14.00,2013-04-20 06:12:00,
2013-04-20 02:15:00,40.2,39.2,29.69,NNW,347,0.0,7.3,96,0.00,,,0.00,VWS V14.00,2013-04-20 06:15:00,
2013-04-20 02:18:00,40.2,39.2,29.69,NNW,347,0.0,7.3,96,0.00,,,0.00,VWS V14.00,2013-04-20 06:18:00,
2013-04-20 02:21:00,40.2,39.2,29.69,NNW,330,0.0,7.3,96,0.00,,,0.00,VWS V14.00,2013-04-20 06:21:00,
2013-04-20 02:24:00,40.1,39.2,29.69,NNW,330,0.0,7.3,96,0.00,,,0.00,VWS V14.00,2013-04-20 06:24:00,
2013-04-20 02:27:00,40.0,39.1,29.69,NNW,330,0.0,7.3,96,0.00,,,0.00,VWS V14.00,2013-04-20 06:27:00,
2013-04-20 02:30:00,40.0,39.1,29.69,NNW,330,0.0,7.3,97,0.00,,,0.00,VWS V14.00,2013-04-20 06:30:00,
2013-04-20 02:33:00,40.0,39.1,29.68,NNW,330,0.0,7.3,97,0.00,,,0.00,VWS V14.00,2013-04-20 06:33:00,
2013-04-20 02:36:00,40.0,39.2,29.68,NNW,330,0.0,7.3,97,0.00,,,0.00,VWS V14.00,2013-04-20 06:36:00,
2013-04-20 02:39:00,40.1,39.3,29.68,NNW,330,0.0,7.3,97,0.00,,,0.00,VWS V14.00,2013-04-20 06:39:00,
2013-04-20 02:42:00,40.1,39.3,29.68,NNW,330,0.0,7.3,97,0.00,,,0.00,VWS V14.00,2013-04-20 06:42:00,
2013-04-20 02:45:00,40.0,39.2,29.68,NNW,330,0.0,7.3,97,0.00,,,0.00,VWS V14.00,2013-04-20 06:45:00,
2013-04-20 02:48:00,40.0,39.2,29.69,NNW,330,0.0,7.3,97,0.00,,,0.00,VWS V14.00,2013-04-20 06:48:00,
2013-04-20 02:51:00,40.0,39.2,29.67,NNW,330,0.0,7.3,97,0.00,,,0.00,VWS V14.00,2013-04-20 06:51:00,
2013-04-20 02:55:00,39.9,39.0,29.67,NNW,330,0.0,7.3,97,0.00,,,0.00,VWS V14.00,2013-04-20 06:55:00,
2013-04-20 02:58:00,39.9,39.0,29.67,NNW,330,0.0,7.3,97,0.00,,,0.00,VWS V14.00,2013-04-20 06:58:00,
2013-04-20 03:01:00,39.9,39.0,29.67,NNW,330,0.0,7.3,97,0.00,,,0.00,VWS V14.00,2013-04-20 07:01:00,
2013-04-20 03:04:00,39.9,39.1,29.68,NNW,330,0.0,7.3,97,0.00,,,0.00,VWS V14.00,2013-04-20 07:04:00,
2013-04-20 03:07:00,40.0,39.2,29.69,NNW,330,0.0,7.3,97,0.00,,,0.00,VWS V14.00,2013-04-20 07:07:00,
2013-04-20 03:10:00,39.9,39.2,29.69,NNW,330,0.0,7.3,97,0.00,,,0.00,VWS V14.00,2013-04-20 07:10:00,
2013-04-20 03:13:00,39.8,39.0,29.69,NNW,330,0.0,7.3,97,0.00,,,0.00,VWS V14.00,2013-04-20 07:13:00,
2013-04-20 03:16:00,39.8,39.1,29.69,NNW,330,0.0,7.3,97,0.00,,,0.00,VWS V14.00,2013-04-20 07:16:00,
2013-04-20 03:19:00,39.8,39.1,29.70,NNW,330,0.0,7.3,97,0.00,,,0.00,VWS V14.00,2013-04-20 07:19:00,
2013-04-20 03:22:00,39.7,39.0,29.70,NNW,330,0.0,7.3,97,0.00,,,0.00,VWS V14.00,2013-04-20 07:22:00,
2013-04-20 03:25:00,39.6,38.9,29.70,NNW,330,0.0,7.3,97,0.00,,,0.00,VWS V14.00,2013-04-20 07:25:00,
2013-04-20 03:28:00,39.4,38.7,29.70,NNW,330,0.0,7.3,97,0.00,,,0.00,VWS V14.00,2013-04-20 07:28:00,
2013-04-20 03:31:00,39.5,38.8,29.70,NNW,330,0.0,7.3,98,0.00,,,0.00,VWS V14.00,2013-04-20 07:31:00,
2013-04-20 03:34:00,39.4,38.8,29.70,NNW,330,0.0,7.3,98,0.00,,,0.00,VWS V14.00,2013-04-20 07:34:00,
2013-04-20 03:37:00,39.3,38.7,29.70,NNW,330,0.0,7.3,98,0.00,,,0.00,VWS V14.00,2013-04-20 07:37:00,
2013-04-20 03:40:00,39.3,38.7,29.70,NNW,330,0.0,7.3,98,0.00,,,0.00,VWS V14.00,2013-04-20 07:40:00,
2013-04-20 03:43:00,39.3,38.7,29.70,NNW,330,0.0,7.3,98,0.00,,,0.00,VWS V14.00,2013-04-20 07:43:00,
2013-04-20 03:46:00,39.1,38.5,29.70,NNW,330,0.0,7.3,98,0.00,,,0.00,VWS V14.00,2013-04-20 07:46:00,
2013-04-20 03:49:00,39.1,38.5,29.69,NNW,330,0.0,7.3,98,0.00,,,0.00,VWS V14.00,2013-04-20 07:49:00,
2013-04-20 03:52:00,39.1,38.5,29.70,NNW,330,0.0,7.3,98,0.00,,,0.00,VWS V14.00,2013-04-20 07:52:00,
2013-04-20 03:55:00,39.0,38.4,29.70,NNW,330,0.0,7.3,98,0.00,,,0.00,VWS V14.00,2013-04-20 07:55:00,
2013-04-20 03:58:00,39.0,38.4,29.70,NNW,330,0.0,7.3,98,0.00,,,0.00,VWS V14.00,2013-04-20 07:58:00,
2013-04-20 04:01:00,39.0,38.5,29.70,NNW,330,0.0,7.3,98,0.00,,,0.00,VWS V14.00,2013-04-20 08:01:00,
2013-04-20 04:04:00,39.0,38.5,29.70,NNW,330,0.0,7.3,98,0.00,,,0.00,VWS V14.00,2013-04-20 08:04:00,
2013-04-20 04:07:00,39.1,38.7,29.70,NNW,330,0.0,7.3,98,0.00,,,0.00,VWS V14.00,2013-04-20 08:07:00,
2013-04-20 04:10:00,39.0,38.6,29.69,NNW,330,0.0,7.3,98,0.00,,,0.00,VWS V14.00,2013-04-20 08:10:00,
2013-04-20 04:13:00,39.1,38.7,29.69,NNW,330,0.0,7.3,98,0.00,,,0.00,VWS V14.00,2013-04-20 08:13:00,
2013-04-20 04:16:00,39.1,38.6,29.69,NNW,330,0.0,7.3,98,0.00,,,0.00,VWS V14.00,2013-04-20 08:16:00,
2013-04-20 04:19:00,39.1,38.6,29.69,NNW,330,0.0,7.3,98,0.00,,,0.00,VWS V14.00,2013-04-20 08:19:00,
2013-04-20 04:22:00,39.0,38.4,29.69,NNW,330,0.0,7.3,98,0.00,,,0.00,VWS V14.00,2013-04-20 08:22:00,
2013-04-20 04:28:00,38.8,38.2,29.69,NNW,330,0.0,7.3,98,0.00,,,0.00,VWS V14.00,2013-04-20 08:28:00,
2013-04-20 04:31:00,38.7,38.1,29.69,NNW,330,0.0,7.3,98,0.00,,,0.00,VWS V14.00,2013-04-20 08:31:00,
2013-04-20 04:34:00,38.8,38.2,29.69,NNW,330,0.0,7.3,98,0.00,,,0.00,VWS V14.00,2013-04-20 08:34:00,
2013-04-20 04:40:00,38.8,38.2,29.70,NNW,330,0.0,7.3,98,0.00,,,0.00,VWS V14.00,2013-04-20 08:40:00,
2013-04-20 04:58:00,38.6,38.1,29.70,NNW,330,0.0,7.3,98,0.00,,,0.00,VWS V14.00,2013-04-20 08:58:00,
2013-04-20 05:01:00,38.5,38.0,29.70,NNW,330,0.0,7.3,98,0.00,,,0.00,VWS V14.00,2013-04-20 09:01:00,
2013-04-20 05:07:00,38.5,38.0,29.70,NNW,330,0.0,7.3,98,0.00,,,0.00,VWS V14.00,2013-04-20 09:07:00,
2013-04-20 05:13:00,38.5,38.1,29.70,NNW,330,0.0,7.3,98,0.00,,,0.00,VWS V14.00,2013-04-20 09:13:00,
2013-04-20 05:16:00,38.4,38.0,29.70,NNW,330,0.0,7.3,99,0.00,,,0.00,VWS V14.00,2013-04-20 09:16:00,
2013-04-20 05:21:00,38.9,38.3,29.69,NNW,330,0.0,7.3,98,0.00,,,0.00,VWS V14.00,2013-04-20 09:21:00,
2013-04-20 05:22:00,38.5,38.2,29.70,NNW,330,0.0,7.3,99,0.00,,,0.00,VWS V14.00,2013-04-20 09:22:00,
2013-04-20 05:33:00,38.7,38.0,29.69,NNW,330,0.0,7.3,98,0.00,,,0.00,VWS V14.00,2013-04-20 09:33:00,
2013-04-20 05:39:00,38.8,38.2,29.69,NNW,330,0.0,7.3,98,0.00,,,0.00,VWS V14.00,2013-04-20 09:39:00,
2013-04-20 05:45:00,38.6,38.0,29.70,NNW,330,0.0,7.3,98,0.00,,,0.00,VWS V14.00,2013-04-20 09:45:00,
2013-04-20 05:49:00,38.4,38.4,29.72,NNW,330,0.0,7.3,100,0.00,,,0.00,VWS V14.00,2013-04-20 09:49:00,
2013-04-20 05:51:00,38.6,38.0,29.70,NNW,330,0.0,7.3,98,0.00,,,0.00,VWS V14.00,2013-04-20 09:51:00,
2013-04-20 05:55:00,38.4,38.4,29.72,NNW,330,0.0,7.3,100,0.00,,,0.00,VWS V14.00,2013-04-20 09:55:00,
2013-04-20 06:01:00,38.5,38.0,29.70,NNW,330,0.0,7.3,98,0.00,,,0.00,VWS V14.00,2013-04-20 10:01:00,
2013-04-20 06:07:00,38.5,38.1,29.70,NNW,330,0.0,7.3,98,0.00,,,0.00,VWS V14.00,2013-04-20 10:07:00,
2013-04-20 06:16:00,38.3,37.9,29.70,NNW,330,0.0,7.3,99,0.00,,,0.00,VWS V14.00,2013-04-20 10:16:00,
2013-04-20 06:22:00,38.3,38.0,29.71,NNW,330,0.0,7.3,99,0.00,,,0.00,VWS V14.00,2013-04-20 10:22:00,
2013-04-20 06:28:00,38.3,38.1,29.71,NNW,330,0.0,7.3,99,0.00,,,0.00,VWS V14.00,2013-04-20 10:28:00,
2013-04-20 06:34:00,38.3,38.2,29.72,NNW,330,0.0,7.3,100,0.00,,,0.00,VWS V14.00,2013-04-20 10:34:00,
2013-04-20 06:40:00,38.3,38.2,29.72,NNW,330,0.0,7.3,100,0.00,,,0.00,VWS V14.00,2013-04-20 10:40:00,
2013-04-20 06:49:00,38.4,38.4,29.71,NNW,330,0.0,7.3,100,0.00,,,0.00,VWS V14.00,2013-04-20 10:49:00,
2013-04-20 06:55:00,38.5,38.5,29.72,NNW,330,0.0,7.3,100,0.00,,,0.00,VWS V14.00,2013-04-20 10:55:00,
2013-04-20 07:01:00,38.5,38.5,29.71,NNW,330,0.0,7.3,100,0.00,,,0.00,VWS V14.00,2013-04-20 11:01:00,
2013-04-20 07:07:00,38.6,38.6,29.72,NNW,330,0.0,7.3,100,0.00,,,0.00,VWS V14.00,2013-04-20 11:07:00,
2013-04-20 07:13:00,38.7,38.7,29.72,NNW,330,0.0,7.3,100,0.00,,,0.00,VWS V14.00,2013-04-20 11:13:00,
2013-04-20 07:19:00,38.6,38.6,29.72,NNW,330,0.0,7.3,100,0.00,,,0.00,VWS V14.00,2013-04-20 11:19:00,
2013-04-20 07:25:00,38.6,38.6,29.72,NNW,330,0.0,7.3,100,0.00,,,0.00,VWS V14.00,2013-04-20 11:25:00,
2013-04-20 07:31:00,38.8,38.8,29.73,NNW,330,0.0,7.3,100,0.00,,,0.00,VWS V14.00,2013-04-20 11:31:00,
2013-04-20 07:37:00,38.8,38.8,29.73,NNW,330,0.0,7.3,100,0.00,,,0.00,VWS V14.00,2013-04-20 11:37:00,
2013-04-20 07:43:00,38.8,38.8,29.73,NNW,330,0.0,7.3,100,0.00,,,0.00,VWS V14.00,2013-04-20 11:43:00,
2013-04-20 07:49:00,38.9,38.9,29.73,NNW,330,0.0,7.3,100,0.00,,,0.00,VWS V14.00,2013-04-20 11:49:00,
2013-04-20 07:55:00,39.0,39.0,29.73,NNW,330,0.0,7.3,100,0.00,,,0.00,VWS V14.00,2013-04-20 11:55:00,
2013-04-20 08:01:00,39.2,39.2,29.74,NNW,330,0.0,7.3,100,0.00,,,0.00,VWS V14.00,2013-04-20 12:01:00,
2013-04-20 08:07:00,39.4,39.4,29.74,NNW,330,0.0,7.3,100,0.00,,,0.00,VWS V14.00,2013-04-20 12:07:00,
2013-04-20 08:13:00,39.4,39.4,29.74,NNW,330,0.0,7.3,100,0.00,,,0.00,VWS V14.00,2013-04-20 12:13:00,
2013-04-20 08:19:00,39.6,39.6,29.74,NNW,330,0.0,7.3,100,0.00,,,0.00,VWS V14.00,2013-04-20 12:19:00,
2013-04-20 08:25:00,39.7,39.7,29.74,NNW,330,0.0,7.3,100,0.00,,,0.00,VWS V14.00,2013-04-20 12:25:00,
2013-04-20 08:31:00,39.7,39.7,29.73,NNW,330,0.0,7.3,100,0.00,,,0.00,VWS V14.00,2013-04-20 12:31:00,
2013-04-20 08:37:00,39.7,39.7,29.73,NNW,330,0.0,7.3,100,0.00,,,0.00,VWS V14.00,2013-04-20 12:37:00,
2013-04-20 08:44:00,39.9,39.9,29.73,NNW,330,0.0,7.3,100,0.00,,,0.00,VWS V14.00,2013-04-20 12:44:00,
2013-04-20 08:50:00,40.0,39.9,29.74,NNW,330,0.0,7.3,100,0.00,,,0.00,VWS V14.00,2013-04-20 12:50:00,
2013-04-20 08:56:00,40.0,39.9,29.74,NNW,330,0.0,7.3,100,0.00,,,0.00,VWS V14.00,2013-04-20 12:56:00,
2013-04-20 09:02:00,40.2,40.0,29.74,NNW,330,0.0,7.3,99,0.00,,,0.00,VWS V14.00,2013-04-20 13:02:00,
2013-04-20 09:08:00,40.6,40.5,29.74,NNW,330,0.0,7.3,100,0.00,,,0.00,VWS V14.00,2013-04-20 13:08:00,
2013-04-20 09:14:00,40.8,40.6,29.74,NNW,330,0.0,7.3,99,0.00,,,0.00,VWS V14.00,2013-04-20 13:14:00,
2013-04-20 09:20:00,41.0,40.5,29.74,NNW,330,0.0,7.3,98,0.00,,,0.00,VWS V14.00,2013-04-20 13:20:00,
2013-04-20 09:26:00,41.4,40.8,29.74,NNW,330,0.0,7.3,98,0.00,,,0.00,VWS V14.00,2013-04-20 13:26:00,
2013-04-20 09:32:00,41.4,40.2,29.74,NNW,332,7.5,9.6,95,0.00,,,0.00,VWS V14.00,2013-04-20 13:32:00,
2013-04-20 09:38:00,41.2,38.9,29.74,NNW,330,6.2,12.5,91,0.00,,,0.00,VWS V14.00,2013-04-20 13:38:00,
2013-04-20 09:44:00,41.3,38.4,29.74,NNW,330,6.2,12.5,89,0.00,,,0.00,VWS V14.00,2013-04-20 13:44:00,
2013-04-20 09:50:00,41.3,37.7,29.74,North,349,8.5,13.7,87,0.00,,,0.00,VWS V14.00,2013-04-20 13:50:00,
2013-04-20 09:56:00,41.3,37.2,29.74,North,349,11.0,13.7,85,0.00,,,0.00,VWS V14.00,2013-04-20 13:56:00,
2013-04-20 10:02:00,41.4,36.6,29.74,NW,326,8.5,14.1,83,0.00,,,0.00,VWS V14.00,2013-04-20 14:02:00,
2013-04-20 10:08:00,41.7,36.7,29.74,North,357,8.8,14.1,82,0.00,,,0.00,VWS V14.00,2013-04-20 14:08:00,
2013-04-20 10:14:00,41.8,36.7,29.74,NNW,330,7.5,14.1,82,0.00,,,0.00,VWS V14.00,2013-04-20 14:14:00,
2013-04-20 10:20:00,42.0,36.3,29.75,NW,321,7.3,14.2,80,0.00,,,0.00,VWS V14.00,2013-04-20 14:20:00,
2013-04-20 10:26:00,42.2,36.5,29.74,North,356,8.3,14.2,80,0.00,,,0.00,VWS V14.00,2013-04-20 14:26:00,
2013-04-20 10:32:00,42.2,36.0,29.75,NNW,346,11.2,14.7,78,0.00,,,0.00,VWS V14.00,2013-04-20 14:32:00,
2013-04-20 10:38:00,42.4,35.7,29.75,NW,321,5.7,14.7,77,0.00,,,0.00,VWS V14.00,2013-04-20 14:38:00,
2013-04-20 10:44:00,42.5,35.3,29.75,NW,326,9.1,16.3,75,0.00,,,0.00,VWS V14.00,2013-04-20 14:44:00,
2013-04-20 10:50:00,42.6,34.9,29.76,NNE,21,6.7,16.3,74,0.00,,,0.00,VWS V14.00,2013-04-20 14:50:00,
2013-04-20 10:56:00,43.1,35.2,29.76,NNW,332,5.3,16.3,73,0.00,,,0.00,VWS V14.00,2013-04-20 14:56:00,
2013-04-20 11:02:00,43.9,35.7,29.76,NW,326,7.6,16.3,72,0.00,,,0.00,VWS V14.00,2013-04-20 15:02:00,
2013-04-20 11:08:00,44.3,35.3,29.76,North,3,11.6,16.3,70,0.00,,,0.00,VWS V14.00,2013-04-20 15:08:00,
2013-04-20 11:14:00,44.6,35.6,29.76,NW,326,10.1,16.3,70,0.00,,,0.00,VWS V14.00,2013-04-20 15:14:00,
2013-04-20 11:20:00,44.5,34.7,29.77,North,0,6.3,16.3,68,0.00,,,0.00,VWS V14.00,2013-04-20 15:20:00,
2013-04-20 11:26:00,44.6,34.5,29.77,NNW,343,5.1,16.3,68,0.00,,,0.00,VWS V14.00,2013-04-20 15:26:00,
2013-04-20 11:32:00,44.8,34.3,29.77,NW,314,8.2,16.3,66,0.00,,,0.00,VWS V14.00,2013-04-20 15:32:00,
2013-04-20 11:38:00,45.0,34.3,29.77,NNW,342,6.4,16.3,66,0.00,,,0.00,VWS V14.00,2013-04-20 15:38:00,
2013-04-20 11:44:00,45.0,33.6,29.78,NNW,333,6.5,16.3,64,0.00,,,0.00,VWS V14.00,2013-04-20 15:44:00,
2013-04-20 11:50:00,45.3,34.1,29.78,NNW,338,5.8,16.3,65,0.00,,,0.00,VWS V14.00,2013-04-20 15:50:00,
2013-04-20 11:56:00,45.9,34.6,29.78,NNW,333,7.6,16.3,64,0.00,,,0.00,VWS V14.00,2013-04-20 15:56:00,
2013-04-20 12:03:00,46.9,34.5,29.79,North,359,5.5,16.3,62,0.00,,,0.00,VWS V14.00,2013-04-20 16:03:00,
2013-04-20 12:09:00,47.1,34.0,29.79,North,353,4.2,16.3,60,0.00,,,0.00,VWS V14.00,2013-04-20 16:09:00,
2013-04-20 12:15:00,47.5,34.5,29.78,NNW,328,10.2,16.3,60,0.00,,,0.00,VWS V14.00,2013-04-20 16:15:00,
2013-04-20 12:21:00,47.4,33.1,29.79,NNW,330,0.0,16.3,57,0.00,,,0.00,VWS V14.00,2013-04-20 16:21:00,
2013-04-20 12:27:00,46.9,32.3,29.79,North,8,6.2,16.3,57,0.00,,,0.00,VWS V14.00,2013-04-20 16:27:00,
2013-04-20 12:33:00,46.4,31.6,29.79,NW,319,3.4,16.3,56,0.00,,,0.00,VWS V14.00,2013-04-20 16:33:00,
2013-04-20 12:39:00,46.1,31.4,29.79,North,352,0.0,16.3,56,0.00,,,0.00,VWS V14.00,2013-04-20 16:39:00,
2013-04-20 12:45:00,45.9,31.5,29.79,NNW,343,0.0,16.3,57,0.00,,,0.00,VWS V14.00,2013-04-20 16:45:00,
2013-04-20 12:51:00,45.7,31.4,29.79,NNW,343,0.0,16.3,57,0.00,,,0.00,VWS V14.00,2013-04-20 16:51:00,
2013-04-20 12:57:00,45.6,31.1,29.80,NNW,343,0.0,16.3,57,0.00,,,0.00,VWS V14.00,2013-04-20 16:57:00,
2013-04-20 13:03:00,45.6,31.2,29.80,NNW,335,0.0,16.3,57,0.00,,,0.00,VWS V14.00,2013-04-20 17:03:00,
2013-04-20 13:09:00,45.6,30.7,29.80,NNW,335,0.0,16.3,56,0.00,,,0.00,VWS V14.00,2013-04-20 17:09:00,
2013-04-20 13:15:00,45.7,30.6,29.81,NNW,343,0.0,16.3,55,0.00,,,0.00,VWS V14.00,2013-04-20 17:15:00,
2013-04-20 13:21:00,45.6,30.2,29.81,NW,305,0.0,16.3,54,0.00,,,0.00,VWS V14.00,2013-04-20 17:21:00,
2013-04-20 13:27:00,45.6,29.8,29.81,NW,323,0.0,16.3,54,0.00,,,0.00,VWS V14.00,2013-04-20 17:27:00,
2013-04-20 13:33:00,45.8,30.5,29.82,NW,326,4.3,16.3,55,0.00,,,0.00,VWS V14.00,2013-04-20 17:33:00,
2013-04-20 13:39:00,46.3,30.3,29.82,North,7,5.7,16.3,53,0.00,,,0.00,VWS V14.00,2013-04-20 17:39:00,
2013-04-20 13:45:00,46.6,30.2,29.82,North,7,5.5,16.3,53,0.00,,,0.00,VWS V14.00,2013-04-20 17:45:00,
2013-04-20 13:51:00,46.7,30.4,29.82,North,10,0.0,16.3,53,0.00,,,0.00,VWS V14.00,2013-04-20 17:51:00,
2013-04-20 13:57:00,46.8,29.1,29.82,NNW,346,5.4,16.3,50,0.00,,,0.00,VWS V14.00,2013-04-20 17:57:00,
2013-04-20 14:03:00,46.8,28.4,29.83,NNE,13,8.9,16.3,48,0.00,,,0.00,VWS V14.00,2013-04-20 18:03:00,
2013-04-20 14:09:00,46.9,28.0,29.83,NNW,336,11.7,19.1,48,0.00,,,0.00,VWS V14.00,2013-04-20 18:09:00,
2013-04-20 14:15:00,46.9,28.0,29.83,NNW,346,14.0,19.1,48,0.00,,,0.00,VWS V14.00,2013-04-20 18:15:00,
2013-04-20 14:21:00,46.6,27.3,29.84,NNW,336,9.6,19.1,47,0.00,,,0.00,VWS V14.00,2013-04-20 18:21:00,
2013-04-20 14:27:00,46.3,27.1,29.84,NNW,338,4.7,19.1,47,0.00,,,0.00,VWS V14.00,2013-04-20 18:27:00,
2013-04-20 14:33:00,46.3,27.3,29.84,NNW,346,0.0,19.1,47,0.00,,,0.00,VWS V14.00,2013-04-20 18:33:00,
2013-04-20 14:39:00,46.2,27.6,29.84,NNW,330,8.5,19.1,48,0.00,,,0.00,VWS V14.00,2013-04-20 18:39:00,
2013-04-20 14:45:00,46.8,28.1,29.84,NW,323,7.4,19.1,48,0.00,,,0.00,VWS V14.00,2013-04-20 18:45:00,
2013-04-20 14:51:00,47.0,28.2,29.85,North,359,11.6,19.1,48,0.00,,,0.00,VWS V14.00,2013-04-20 18:51:00,
2013-04-20 14:57:00,47.2,28.3,29.86,NW,325,7.2,19.1,48,0.00,,,0.00,VWS V14.00,2013-04-20 18:57:00,
2013-04-20 15:03:00,47.1,28.7,29.86,North,359,9.7,19.1,49,0.00,,,0.00,VWS V14.00,2013-04-20 19:03:00,
2013-04-20 15:09:00,47.8,30.5,29.86,North,0,11.1,19.1,51,0.00,,,0.00,VWS V14.00,2013-04-20 19:09:00,
2013-04-20 15:15:00,48.9,29.6,29.86,NNW,340,11.5,19.1,47,0.00,,,0.00,VWS V14.00,2013-04-20 19:15:00,
2013-04-20 15:22:00,48.5,27.4,29.87,NNW,330,12.1,19.1,44,0.00,,,0.00,VWS V14.00,2013-04-20 19:22:00,
2013-04-20 15:28:00,47.7,26.9,29.87,NNW,335,8.3,19.1,44,0.00,,,0.00,VWS V14.00,2013-04-20 19:28:00,
2013-04-20 15:34:00,47.0,25.3,29.88,NNW,336,11.9,19.1,42,0.00,,,0.00,VWS V14.00,2013-04-20 19:34:00,
2013-04-20 15:40:00,46.3,25.0,29.88,North,352,9.8,19.1,43,0.00,,,0.00,VWS V14.00,2013-04-20 19:40:00,
2013-04-20 15:46:00,45.9,25.1,29.88,NNW,339,9.4,20.0,44,0.00,,,0.00,VWS V14.00,2013-04-20 19:46:00,
2013-04-20 15:52:00,45.6,25.2,29.88,NNW,336,9.5,20.0,44,0.00,,,0.00,VWS V14.00,2013-04-20 19:52:00,
2013-04-20 15:58:00,45.6,26.5,29.89,NNW,345,10.2,20.0,47,0.00,,,0.00,VWS V14.00,2013-04-20 19:58:00,
2013-04-20 16:04:00,45.7,27.3,29.89,NW,325,8.5,20.0,48,0.00,,,0.00,VWS V14.00,2013-04-20 20:04:00,
2013-04-20 16:10:00,46.0,27.5,29.89,NW,319,10.7,20.0,48,0.00,,,0.00,VWS V14.00,2013-04-20 20:10:00,
2013-04-20 16:16:00,46.5,26.8,29.90,NNW,332,7.6,20.0,46,0.00,,,0.00,VWS V14.00,2013-04-20 20:16:00,
2013-04-20 16:22:00,46.6,26.0,29.89,NW,315,10.7,20.0,44,0.00,,,0.00,VWS V14.00,2013-04-20 20:22:00,
2013-04-20 16:28:00,47.0,25.6,29.90,NNW,332,9.1,20.0,43,0.00,,,0.00,VWS V14.00,2013-04-20 20:28:00,
2013-04-20 16:34:00,47.0,24.5,29.90,NW,319,13.0,20.0,41,0.00,,,0.00,VWS V14.00,2013-04-20 20:34:00,
2013-04-20 16:40:00,46.9,24.8,29.92,WNW,295,11.3,20.0,42,0.00,,,0.00,VWS V14.00,2013-04-20 20:40:00,
2013-04-20 16:46:00,46.7,23.7,29.92,NNW,346,14.6,20.0,40,0.00,,,0.00,VWS V14.00,2013-04-20 20:46:00,
2013-04-20 16:52:00,46.0,22.3,29.92,NNW,336,15.6,20.0,39,0.00,,,0.00,VWS V14.00,2013-04-20 20:52:00,
2013-04-20 16:58:00,45.5,22.1,29.92,NNW,339,7.6,20.0,39,0.00,,,0.00,VWS V14.00,2013-04-20 20:58:00,
2013-04-20 17:04:00,45.1,22.0,29.93,North,357,5.8,20.0,40,0.00,,,0.00,VWS V14.00,2013-04-20 21:04:00,
2013-04-20 17:10:00,44.8,21.9,29.93,North,356,10.5,20.0,40,0.00,,,0.00,VWS V14.00,2013-04-20 21:10:00,
2013-04-20 17:16:00,44.4,21.8,29.94,NNW,343,8.9,20.0,40,0.00,,,0.00,VWS V14.00,2013-04-20 21:16:00,
2013-04-20 17:22:00,44.3,22.4,29.94,NNE,14,12.6,20.0,42,0.00,,,0.00,VWS V14.00,2013-04-20 21:22:00,
2013-04-20 17:28:00,45.1,23.9,29.95,WNW,302,4.6,20.0,43,0.00,,,0.00,VWS V14.00,2013-04-20 21:28:00,
2013-04-20 17:34:00,45.7,23.2,29.95,NNW,347,10.0,20.0,41,0.00,,,0.00,VWS V14.00,2013-04-20 21:34:00,
2013-04-20 17:40:00,45.2,22.0,29.95,NW,322,10.0,20.0,39,0.00,,,0.00,VWS V14.00,2013-04-20 21:40:00,
2013-04-20 17:46:00,44.3,21.6,29.96,North,353,9.8,20.0,40,0.00,,,0.00,VWS V14.00,2013-04-20 21:46:00,
2013-04-20 17:52:00,44.4,22.4,29.96,NW,309,10.4,20.0,41,0.00,,,0.00,VWS V14.00,2013-04-20 21:52:00,
2013-04-20 17:58:00,44.1,22.5,29.97,NW,323,8.2,20.0,42,0.00,,,0.00,VWS V14.00,2013-04-20 21:58:00,
2013-04-20 18:04:00,43.7,22.5,29.97,NNW,338,11.1,20.0,43,0.00,,,0.00,VWS V14.00,2013-04-20 22:04:00,
2013-04-20 18:10:00,43.1,22.3,29.98,NNW,329,9.4,20.0,43,0.00,,,0.00,VWS V14.00,2013-04-20 22:10:00,
2013-04-20 18:16:00,42.9,22.8,29.99,WNW,285,10.6,20.0,45,0.00,,,0.00,VWS V14.00,2013-04-20 22:16:00,
2013-04-20 18:22:00,43.0,23.1,30.00,NNE,18,8.8,20.0,45,0.00,,,0.00,VWS V14.00,2013-04-20 22:22:00,
2013-04-20 18:28:00,42.7,22.8,30.00,NNW,332,12.3,20.0,45,0.00,,,0.00,VWS V14.00,2013-04-20 22:28:00,
2013-04-20 18:35:00,42.6,22.7,30.00,NNW,330,9.0,20.0,45,0.00,,,0.00,VWS V14.00,2013-04-20 22:35:00,
2013-04-20 18:41:00,42.3,22.6,30.01,NNW,336,5.8,20.0,45,0.00,,,0.00,VWS V14.00,2013-04-20 22:41:00,
2013-04-20 18:47:00,42.3,22.8,30.01,NNW,343,6.8,20.0,46,0.00,,,0.00,VWS V14.00,2013-04-20 22:47:00,
2013-04-20 18:53:00,42.1,22.5,30.01,WNW,302,7.6,20.0,45,0.00,,,0.00,VWS V14.00,2013-04-20 22:53:00,
2013-04-20 18:59:00,41.7,21.8,30.02,NW,318,11.2,20.0,45,0.00,,,0.00,VWS V14.00,2013-04-20 22:59:00,
2013-04-20 19:05:00,41.2,21.5,30.02,NNW,342,8.0,20.0,45,0.00,,,0.00,VWS V14.00,2013-04-20 23:05:00,
2013-04-20 19:11:00,40.9,21.5,30.02,NW,322,9.6,20.0,46,0.00,,,0.00,VWS V14.00,2013-04-20 23:11:00,
2013-04-20 19:17:00,40.6,21.4,30.03,NNW,332,7.0,20.0,46,0.00,,,0.00,VWS V14.00,2013-04-20 23:17:00,
2013-04-20 19:23:00,40.5,21.6,30.03,NW,326,8.6,20.0,46,0.00,,,0.00,VWS V14.00,2013-04-20 23:23:00,
2013-04-20 19:29:00,40.4,21.7,30.04,NW,318,7.0,20.0,47,0.00,,,0.00,VWS V14.00,2013-04-20 23:29:00,
2013-04-20 19:35:00,40.0,20.9,30.04,NW,326,9.0,20.0,46,0.00,,,0.00,VWS V14.00,2013-04-20 23:35:00,
2013-04-20 19:41:00,39.7,20.4,30.05,NNW,333,7.7,20.0,46,0.00,,,0.00,VWS V14.00,2013-04-20 23:41:00,
2013-04-20 19:47:00,39.5,20.5,30.05,NNW,339,7.6,20.0,46,0.00,,,0.00,VWS V14.00,2013-04-20 23:47:00,
2013-04-20 19:53:00,39.2,20.6,30.06,NNW,333,10.3,20.0,47,0.00,,,0.00,VWS V14.00,2013-04-20 23:53:00,
2013-04-20 19:59:00,38.8,20.2,30.07,NW,325,10.6,20.0,47,0.00,,,0.00,VWS V14.00,2013-04-20 23:59:00,
2013-04-20 20:05:00,38.7,20.2,30.07,NW,326,8.3,20.0,47,0.00,,,0.00,VWS V14.00,2013-04-21 00:05:00,
2013-04-20 20:11:00,38.5,20.1,30.07,NNW,340,7.8,20.0,47,0.00,,,0.00,VWS V14.00,2013-04-21 00:11:00,
2013-04-20 20:17:00,38.2,20.0,30.08,NW,326,7.6,20.0,48,0.00,,,0.00,VWS V14.00,2013-04-21 00:17:00,
2013-04-20 20:23:00,38.0,20.1,30.08,NNW,342,7.4,20.0,48,0.00,,,0.00,VWS V14.00,2013-04-21 00:23:00,
2013-04-20 20:29:00,37.7,20.0,30.09,NNW,336,7.1,20.0,48,0.00,,,0.00,VWS V14.00,2013-04-21 00:29:00,
2013-04-20 20:35:00,37.5,20.3,30.09,NW,326,10.4,20.0,50,0.00,,,0.00,VWS V14.00,2013-04-21 00:35:00,
2013-04-20 20:41:00,37.2,20.4,30.10,NNW,335,7.3,20.0,50,0.00,,,0.00,VWS V14.00,2013-04-21 00:41:00,
2013-04-20 20:47:00,37.1,20.7,30.10,NW,323,7.8,20.0,51,0.00,,,0.00,VWS V14.00,2013-04-21 00:47:00,
2013-04-20 20:53:00,36.8,20.7,30.10,NW,322,8.5,20.0,52,0.00,,,0.00,VWS V14.00,2013-04-21 00:53:00,
2013-04-20 20:59:00,36.8,20.8,30.11,NNW,332,9.3,20.0,52,0.00,,,0.00,VWS V14.00,2013-04-21 00:59:00,
2013-04-20 21:05:00,36.5,20.7,30.12,NW,325,9.6,20.0,52,0.00,,,0.00,VWS V14.00,2013-04-21 01:05:00,
2013-04-20 21:11:00,36.4,20.9,30.12,NNW,335,9.6,20.0,53,0.00,,,0.00,VWS V14.00,2013-04-21 01:11:00,
2013-04-20 21:17:00,36.1,20.7,30.13,NNW,328,8.3,20.0,53,0.00,,,0.00,VWS V14.00,2013-04-21 01:17:00,
2013-04-20 21:23:00,35.9,20.6,30.13,NW,326,10.1,20.0,53,0.00,,,0.00,VWS V14.00,2013-04-21 01:23:00,
2013-04-20 21:29:00,35.7,20.8,30.14,NW,305,9.3,20.0,54,0.00,,,0.00,VWS V14.00,2013-04-21 01:29:00,
2013-04-20 21:35:00,35.4,20.5,30.14,NW,318,7.3,20.0,54,0.00,,,0.00,VWS V14.00,2013-04-21 01:35:00,
2013-04-20 21:42:00,35.5,20.6,30.15,NNW,330,7.3,20.0,54,0.00,,,0.00,VWS V14.00,2013-04-21 01:42:00,
2013-04-20 21:48:00,35.3,20.4,30.15,NW,319,6.7,20.0,54,0.00,,,0.00,VWS V14.00,2013-04-21 01:48:00,
2013-04-20 21:54:00,35.1,20.5,30.15,NW,318,7.6,20.0,55,0.00,,,0.00,VWS V14.00,2013-04-21 01:54:00,
2013-04-20 22:00:00,35.0,20.6,30.15,WNW,297,12.9,20.0,55,0.00,,,0.00,VWS V14.00,2013-04-21 02:00:00,
2013-04-20 22:06:00,34.8,20.5,30.15,NW,304,9.5,20.0,56,0.00,,,0.00,VWS V14.00,2013-04-21 02:06:00,
2013-04-20 22:12:00,34.7,20.6,30.15,NNW,336,8.1,20.0,56,0.00,,,0.00,VWS V14.00,2013-04-21 02:12:00,
2013-04-20 22:18:00,34.6,20.7,30.16,North,349,8.2,20.0,56,0.00,,,0.00,VWS V14.00,2013-04-21 02:18:00,
2013-04-20 22:24:00,34.4,20.5,30.16,NNW,338,7.3,20.0,56,0.00,,,0.00,VWS V14.00,2013-04-21 02:24:00,
2013-04-20 22:30:00,34.3,20.4,30.16,NW,325,7.5,20.0,56,0.00,,,0.00,VWS V14.00,2013-04-21 02:30:00,
2013-04-20 22:36:00,34.2,20.2,30.16,NNW,347,5.1,20.0,56,0.00,,,0.00,VWS V14.00,2013-04-21 02:36:00,
2013-04-20 22:42:00,34.1,19.9,30.17,NW,318,10.7,20.0,56,0.00,,,0.00,VWS V14.00,2013-04-21 02:42:00,
2013-04-20 22:48:00,34.0,19.2,30.17,NW,314,7.5,20.0,54,0.00,,,0.00,VWS V14.00,2013-04-21 02:48:00,
2013-04-20 22:54:00,33.8,18.6,30.18,North,352,7.3,20.0,53,0.00,,,0.00,VWS V14.00,2013-04-21 02:54:00,
2013-04-20 23:00:00,33.6,18.1,30.18,NNW,340,10.3,20.0,53,0.00,,,0.00,VWS V14.00,2013-04-21 03:00:00,
2013-04-20 23:06:00,33.6,17.9,30.18,North,354,4.2,20.0,52,0.00,,,0.00,VWS V14.00,2013-04-21 03:06:00,
2013-04-20 23:12:00,33.5,17.7,30.18,NW,321,10.0,20.0,52,0.00,,,0.00,VWS V14.00,2013-04-21 03:12:00,
2013-04-20 23:18:00,33.5,17.6,30.19,NW,319,9.1,20.0,52,0.00,,,0.00,VWS V14.00,2013-04-21 03:18:00,
2013-04-20 23:24:00,33.6,17.9,30.19,NW,325,7.6,20.0,52,0.00,,,0.00,VWS V14.00,2013-04-21 03:24:00,
2013-04-20 23:30:00,33.4,17.9,30.20,NNW,328,12.1,20.0,52,0.00,,,0.00,VWS V14.00,2013-04-21 03:30:00,
2013-04-20 23:36:00,33.4,17.9,30.20,North,350,5.2,20.0,52,0.00,,,0.00,VWS V14.00,2013-04-21 03:36:00,
2013-04-20 23:42:00,33.4,17.9,30.20,NNW,338,6.9,20.0,52,0.00,,,0.00,VWS V14.00,2013-04-21 03:42:00,
2013-04-20 23:48:00,33.3,17.9,30.20,NNW,336,7.1,10.4,53,0.00,,,0.00,VWS V14.00,2013-04-21 03:48:00,
2013-04-20 23:50:00,48.1,46.3,29.69,North,349,0.0,27.1,94,0.00,,,0.00,VWS V14.00,2013-04-21 03:50:00,
2013-04-20 23:54:00,33.3,18.0,30.20,NW,309,7.4,10.4,53,0.00,,,0.00,VWS V14.00,2013-04-21 03:54:00,